Вернуться в каталог

ZY 3 2

АктивенНаукаSSO
NORAD 41556·PAYLOAD·🇨🇳 China

Запущен May 30, 2016 с Taiyuan Satellite Launch Center

Loading…

Ближайшие Пролёты (ближайшие 24 часа)

TLE

СвежийSource: Space-Track

Эпоха: Sep 14, 2026, 12:16 UTC

1 41556U 16033A   26257.51159979  .00003702  00000-0  16847-3 0  9993
2 41556  97.3766 331.5335 0012670 353.9620   6.1461 15.21263062571568

Отслеживайте ZY 3 2 в реальном времени с AllMySat

Download on the App Store